Location: Wiesbaden
(50.0830°N, 8.2500°E)
Time: 22:23:49
(UTC+02:00)

ISS - Pass Details

Date: 12 September 2019
Orbit: 411 x 421 km, 51.6° (Epoch: 19 September)

Event Time Altitude Azimuth Distance (km) Brightness Sun altitude
Exits shadow 06:16:33 - 276° (W) 1,619 -1.4 -7.3°
Reaches altitude 10° 06:16:55 10° 273° (W) 1,491 -1.6 -7.2°
Maximum altitude 06:19:46 26° 215° (SW) 858 -2.6 -6.8°
Drops below altitude 10° 06:22:37 10° 156° (SSE) 1,489 -0.8 -6.3°
Sets 06:24:54 0° 144° (SE) 2,351 0.4 -6.0°
